Tracking 35274 objects as of 12-Sep-2026
HD Live streaming from Space Station
objects crossing your sky now

COSMOS 215


COSMOS 215 is no longer on orbit


NORAD ID: 3205
Int'l Code: 1968-033A
Launch date: April 18, 1968
Source: Commonwealth of Independent States (former USSR) (CIS)
Launch site: KAPUSTIN YAR MISSILE AND SPACE COMPLEX (KYMTR)
Decay date: 1968-06-30
Your satellite tracking list
Your tracking list is empty




NASA's NSSDC Master Catalog

Two Line Element Set (TLE):
1 03205U 68033  A 68182.78546132  .04630877 +00000-0 +00000-0 0  9996
2 03205 048.4389 087.1905 0032192 150.2134 210.0595 16.46594515011641
Source of the keplerian elements: AFSPC